Back to catalog

CZ-6A DEB

AliveSSO
NORAD 54401·DEBRIS·🇨🇳 China

Launched Nov 11, 2022 from Taiyuan Satellite Launch Center

Loading…

Next Passes (next 24 hours)

TLE

FreshSource: Space-Track

Epoch: Sep 14, 2026, 11:09 UTC

1 54401U 22151DZ  26257.46488309  .00001375  00000-0  49649-3 0  9990
2 54401  98.6612 256.3536 0111702 236.7578 122.2861 14.31794776199244

Track CZ-6A DEB in real time with AllMySat

Download on the App Store